• In Deutschland
  • Länderverzeichnis
  • Für 7 Tage
  • Wassertemperatur
  • Satellitenkarten
  • Wetterkarte
  • Widgets
  • user-avatar
    Anmelden

    Stündliche Wetter Berat

    Heute, 26 April, Mittwoch

    Zeit Temperatur Niederschläge Wind Luftdruck Luftfeuchtigkeit
    00:00 +10°C° 0 mm 2 m/S 747 mmHg 91%
    01:00 +9°C° 0 mm 2 m/S 747 mmHg 90%
    02:00 +9°C° 0 mm 2 m/S 747 mmHg 87%
    03:00 +9°C° 0 mm 2 m/S 747 mmHg 85%
    04:00 +8°C° 0 mm 2 m/S 746 mmHg 82%
    05:00 +10°C° 0 mm 2 m/S 746 mmHg 74%
    06:00 +13°C° 0 mm 2 m/S 746 mmHg 65%
    07:00 +15°C° 0 mm 2 m/S 746 mmHg 56%
    08:00 +17°C° 0 mm 2 m/S 746 mmHg 48%
    09:00 +19°C° 0 mm 2 m/S 747 mmHg 40%
    10:00 +21°C° 0 mm 3 m/S 747 mmHg 32%
    11:00 +21°C° 0 mm 3 m/S 747 mmHg 32%
    12:00 +22°C° 0 mm 3 m/S 747 mmHg 32%
    13:00 +23°C° 0 mm 4 m/S 746 mmHg 32%
    14:00 +22°C° 0 mm 4 m/S 746 mmHg 34%
    15:00 +22°C° 0 mm 4 m/S 746 mmHg 37%
    16:00 +21°C° 0 mm 4 m/S 746 mmHg 40%
    17:00 +19°C° 0 mm 3 m/S 746 mmHg 51%
    18:00 +16°C° 0 mm 3 m/S 746 mmHg 63%
    19:00 +13°C° 0 mm 2 m/S 746 mmHg 74%
    20:00 +13°C° 0 mm 2 m/S 746 mmHg 75%
    21:00 +13°C° 0 mm 2 m/S 746 mmHg 76%
    22:00 +12°C° 0 mm 2 m/S 747 mmHg 78%
    23:00 +12°C° 0 mm 2 m/S 746 mmHg 77%

    Morgen, 27 April, Donnerstag

    Zeit Temperatur Niederschläge Wind Luftdruck Luftfeuchtigkeit
    00:00 +12°C° 0 mm 2 m/S 746 mmHg 77%
    01:00 +10°C° 0 mm 2 m/S 746 mmHg 76%
    02:00 +10°C° 0 mm 2 m/S 746 mmHg 74%
    03:00 +10°C° 0 mm 2 m/S 745 mmHg 72%
    04:00 +10°C° 0 mm 2 m/S 745 mmHg 70%
    05:00 +13°C° 0 mm 2 m/S 745 mmHg 63%
    06:00 +15°C° 0 mm 2 m/S 745 mmHg 55%
    07:00 +18°C° 0 mm 2 m/S 746 mmHg 47%
    08:00 +20°C° 0 mm 2 m/S 746 mmHg 42%
    09:00 +23°C° 0 mm 2 m/S 746 mmHg 37%
    10:00 +25°C° 0 mm 2 m/S 746 mmHg 32%
    11:00 +25°C° 0 mm 2 m/S 746 mmHg 32%
    12:00 +25°C° 0 mm 3 m/S 745 mmHg 32%
    13:00 +26°C° 0 mm 3 m/S 745 mmHg 32%
    14:00 +25°C° 0 mm 3 m/S 745 mmHg 34%
    15:00 +25°C° 0 mm 3 m/S 745 mmHg 36%
    16:00 +24°C° 0 mm 3 m/S 744 mmHg 39%
    17:00 +20°C° 0 mm 3 m/S 744 mmHg 49%
    18:00 +18°C° 0 mm 2 m/S 744 mmHg 58%
    19:00 +15°C° 0 mm 2 m/S 744 mmHg 68%
    20:00 +14°C° 0 mm 2 m/S 745 mmHg 68%
    21:00 +14°C° 0 mm 2 m/S 745 mmHg 68%
    22:00 +14°C° 0 mm 2 m/S 745 mmHg 69%
    23:00 +14°C° 0 mm 2 m/S 745 mmHg 66%

    übermorgen, 28 April, Freitag

    Zeit Temperatur Niederschläge Wind Luftdruck Luftfeuchtigkeit
    00:00 +14°C° 0 mm 2 m/S 745 mmHg 64%
    01:00 +13°C° 0 mm 3 m/S 744 mmHg 62%
    02:00 +13°C° 0 mm 3 m/S 744 mmHg 59%
    03:00 +12°C° 0 mm 3 m/S 744 mmHg 57%
    04:00 +12°C° 0 mm 3 m/S 744 mmHg 55%
    05:00 +14°C° 0 mm 3 m/S 744 mmHg 51%
    06:00 +17°C° 0 mm 3 m/S 744 mmHg 47%
    07:00 +19°C° 0 mm 3 m/S 744 mmHg 43%
    08:00 +21°C° 0 mm 3 m/S 744 mmHg 39%
    09:00 +24°C° 0 mm 3 m/S 744 mmHg 36%
    10:00 +26°C° 0 mm 4 m/S 744 mmHg 32%
    11:00 +26°C° 0 mm 4 m/S 744 mmHg 32%
    12:00 +27°C° 0 mm 5 m/S 744 mmHg 32%
    13:00 +27°C° 0 mm 5 m/S 743 mmHg 32%
    14:00 +26°C° 0 mm 5 m/S 743 mmHg 37%
    15:00 +25°C° 0 mm 4 m/S 743 mmHg 41%
    16:00 +23°C° 0 mm 4 m/S 743 mmHg 46%
    17:00 +21°C° 0 mm 3 m/S 743 mmHg 52%
    18:00 +19°C° 0 mm 3 m/S 743 mmHg 57%
    19:00 +17°C° 0 mm 3 m/S 743 mmHg 63%
    20:00 +17°C° 0 mm 3 m/S 743 mmHg 62%
    21:00 +17°C° 0 mm 3 m/S 743 mmHg 62%
    22:00 +16°C° 0 mm 3 m/S 744 mmHg 61%
    23:00 +16°C° 0 mm 3 m/S 743 mmHg 60%

    29 April, Samstag

    Zeit Temperatur Niederschläge Wind Luftdruck Luftfeuchtigkeit
    00:00 +16°C° 0 mm 3 m/S 743 mmHg 59%
    01:00 +16°C° 0 mm 3 m/S 743 mmHg 58%
    02:00 +14°C° 0 mm 3 m/S 743 mmHg 57%
    03:00 +14°C° 0 mm 3 m/S 742 mmHg 57%
    04:00 +14°C° 0 mm 3 m/S 742 mmHg 56%
    05:00 +17°C° 0 mm 3 m/S 742 mmHg 53%
    06:00 +18°C° 0 mm 3 m/S 742 mmHg 50%
    07:00 +20°C° 0 mm 2 m/S 742 mmHg 47%
    08:00 +21°C° 0 mm 3 m/S 742 mmHg 43%
    09:00 +24°C° 0 mm 3 m/S 742 mmHg 39%
    10:00 +25°C° 0 mm 3 m/S 743 mmHg 35%
    11:00 +26°C° 0 mm 4 m/S 742 mmHg 35%
    12:00 +26°C° 0 mm 4 m/S 742 mmHg 35%
    13:00 +26°C° 0 mm 4 m/S 742 mmHg 35%
    14:00 +25°C° 0 mm 4 m/S 742 mmHg 40%
    15:00 +24°C° 0 mm 3 m/S 742 mmHg 45%
    16:00 +22°C° 0 mm 3 m/S 742 mmHg 49%
    17:00 +20°C° 0,1 mm 2 m/S 742 mmHg 59%
    18:00 +19°C° 0,1 mm 2 m/S 742 mmHg 69%
    19:00 +17°C° 0,1 mm 2 m/S 742 mmHg 78%
    20:00 +16°C° 0 mm 2 m/S 742 mmHg 79%
    21:00 +16°C° 0 mm 2 m/S 742 mmHg 80%
    22:00 +15°C° 0 mm 2 m/S 743 mmHg 80%
    23:00 +15°C° 0 mm 2 m/S 742 mmHg 79%

    30 April, Sonntag

    Zeit Temperatur Niederschläge Wind Luftdruck Luftfeuchtigkeit
    00:00 +15°C° 0 mm 2 m/S 742 mmHg 77%
    01:00 +15°C° 0 mm 2 m/S 742 mmHg 76%
    02:00 +15°C° 0 mm 2 m/S 742 mmHg 75%
    03:00 +15°C° 0 mm 2 m/S 742 mmHg 75%
    04:00 +15°C° 0 mm 2 m/S 742 mmHg 74%
    05:00 +17°C° 0 mm 2 m/S 742 mmHg 71%
    06:00 +18°C° 0 mm 2 m/S 742 mmHg 68%
    07:00 +19°C° 0 mm 2 m/S 742 mmHg 64%
    08:00 +21°C° 0 mm 2 m/S 743 mmHg 58%
    09:00 +24°C° 0 mm 2 m/S 743 mmHg 52%
    10:00 +26°C° 0 mm 2 m/S 743 mmHg 46%
    11:00 +26°C° 0,2 mm 3 m/S 742 mmHg 47%
    12:00 +26°C° 0,2 mm 3 m/S 742 mmHg 48%
    13:00 +26°C° 0,2 mm 3 m/S 742 mmHg 49%
    14:00 +25°C° 0,9 mm 3 m/S 742 mmHg 54%
    15:00 +24°C° 0,9 mm 3 m/S 741 mmHg 58%
    16:00 +24°C° 0,9 mm 3 m/S 741 mmHg 63%
    17:00 +21°C° 0,7 mm 2 m/S 741 mmHg 71%
    18:00 +19°C° 0,7 mm 2 m/S 742 mmHg 78%
    19:00 +18°C° 0,7 mm 2 m/S 742 mmHg 86%
    20:00 +18°C° 0,7 mm 1 m/S 742 mmHg 88%
    21:00 +18°C° 0,7 mm 1 m/S 742 mmHg 89%
    22:00 +18°C° 0,7 mm 1 m/S 743 mmHg 91%
    23:00 +18°C° 1,6 mm 1 m/S 743 mmHg 91%

    1 Mai, Montag

    Zeit Temperatur Niederschläge Wind Luftdruck Luftfeuchtigkeit
    00:00 +16°C° 1,6 mm 1 m/S 743 mmHg 92%
    01:00 +16°C° 1,6 mm 2 m/S 743 mmHg 92%
    02:00 +16°C° 0,5 mm 1 m/S 742 mmHg 92%
    03:00 +16°C° 0,5 mm 1 m/S 742 mmHg 91%
    04:00 +15°C° 0,5 mm 1 m/S 742 mmHg 91%
    05:00 +16°C° 0 mm 1 m/S 742 mmHg 86%
    06:00 +18°C° 0 mm 1 m/S 742 mmHg 82%
    07:00 +19°C° 0 mm 1 m/S 743 mmHg 78%
    08:00 +21°C° 0 mm 1 m/S 743 mmHg 71%
    09:00 +23°C° 0 mm 1 m/S 743 mmHg 63%
    10:00 +24°C° 0 mm 2 m/S 743 mmHg 56%
    11:00 +24°C° 0,3 mm 2 m/S 743 mmHg 57%
    12:00 +24°C° 0,3 mm 2 m/S 742 mmHg 58%
    13:00 +24°C° 0,3 mm 3 m/S 742 mmHg 60%
    14:00 +24°C° 0,5 mm 3 m/S 742 mmHg 63%
    15:00 +22°C° 0,5 mm 3 m/S 742 mmHg 67%
    16:00 +22°C° 0,5 mm 3 m/S 742 mmHg 70%
    17:00 +20°C° 0,2 mm 2 m/S 742 mmHg 77%
    18:00 +18°C° 0,2 mm 2 m/S 743 mmHg 85%
    19:00 +17°C° 0,2 mm 2 m/S 743 mmHg 92%
    20:00 +16°C° 0,1 mm 2 m/S 743 mmHg 92%
    21:00 +16°C° 0,1 mm 1 m/S 743 mmHg 92%
    22:00 +15°C° 0,1 mm 1 m/S 744 mmHg 92%
    23:00 +15°C° 0,1 mm 1 m/S 743 mmHg 92%
    Mehr zeigen